Погода в Олаве

Польша     50°56′12″N   17°18′54″E
темп.,
°C
ветер,
м/с
пор.,
м/с
влажн.,
%
обл.,
%
осадки,
мм/ч
давл.,
гПа
погр.,
м
27 февраля, сб
сб2701:00+5зсз6128699 0.2 1031599
04:00+3зсз6119334 0.0 1031455
07:00+3зсз7119252 0.0 1032570
10:00+3сз6990100 0.0 1033707
13:00+4сз7982100 0.1 1034764
16:00+5сз698176 0.0 1034698
19:00+4сз588388 0.0 1035531
22:00+3зсз599088 0.0 1036346
28 февраля, вс
вс2801:00+3з589082 0.0 1037295
04:00+3зсз488892 0.0 1036390
07:00+1зсз389095 0.0 1036236
10:00+5зсз46771 0.0 1035475
13:00+8зсз46735 0.0 1034756
16:00+9зсз477114 0.0 1033820
19:00+5сз35907 0.0 1034110
22:00+3с369453 0.0 1034234
1 марта, пн
пн101:00+2сз239349 0.0 103554
04:00+1сз22944 0.0 103522
07:00+1зсз11942 0.0 103622
10:00+5зсз11790 0.0 1037322
13:00+9юз00650 0.0 1036508
16:00+9ю01620 0.0 1035534
19:00+6юв11760 0.0 103622
22:00+5ю22810 0.0 103622
2 марта, вт
вт201:00+4ю23860 0.0 103622
04:00+3ююв23870 0.0 103522
07:00+2ююв22870 0.0 103522
10:00+7ю12680 0.0 1035253
13:00+11ююв00550 0.0 1034503
16:00+11юв01560 0.0 1032386
19:00+7ююв12680 0.0 103222
22:00+6ю12730 0.0 103322
3 марта, ср
ср301:00+4ююв11760 0.0 103322
04:00+3сз01810 0.0 103222
07:00+3зюз11820 0.0 103222
10:00+8зюз12640 0.0 1031272
13:00+11зсз22540 0.0 1030758
16:00+11сз12555 0.0 1028771
19:00+7ююв12666 0.0 102822
22:00+6ююз23760 0.0 102724